| time (UTC) | temp F | wind direction | speed MPH | gust MPH | rain 1hr in | rain 24hr in | rain mn in | humidity % | barometer mb |
| 20260831014106 | 63 | 310 | 4.0 | 8.0 | 0.00 | 1.05 | 0.00 | 48 | 1015.4 |
| 20260831013106 | 64 | 309 | 5.0 | 10.0 | 0.00 | 1.05 | 0.00 | 47 | 1015.3 |
| 20260831012106 | 64 | 304 | 7.0 | 11.0 | 0.00 | 1.05 | 0.00 | 47 | 1015.2 |
| 20260831011107 | 63 | 288 | 7.0 | 14.0 | 0.00 | 1.05 | 0.00 | 49 | 1015.2 |
| 20260831010109 | 64 | 281 | 7.0 | 15.0 | 0.00 | 1.05 | 0.00 | 49 | 1015.3 |
| 20260831005106 | 65 | 289 | 7.0 | 14.0 | 0.00 | 1.05 | 0.00 | 46 | 1015.3 |
| 20260831004107 | 65 | 285 | 10.0 | 16.0 | 0.00 | 1.05 | 0.00 | 45 | 1015.3 |
| 20260831003106 | 66 | 288 | 7.0 | 17.0 | 0.00 | 1.05 | 0.00 | 46 | 1015.4 |
| 20260831002107 | 66 | 283 | 6.0 | 15.0 | 0.00 | 1.05 | 0.00 | 45 | 1015.3 |
| 20260831001107 | 66 | 282 | 5.0 | 13.0 | 0.00 | 1.05 | 0.00 | 45 | 1015.4 |
| 20260831000106 | 67 | 258 | 7.0 | 12.0 | 0.00 | 1.05 | 0.00 | 44 | 1015.3 |
| 20260830235106 | 67 | 279 | 10.0 | 16.0 | 0.00 | 1.05 | 0.00 | 42 | 1015.3 |
| 20260830234107 | 67 | 280 | 5.0 | 12.0 | 0.00 | 1.05 | 0.00 | 43 | 1015.4 |
| 20260830233106 | 66 | 277 | 7.0 | 15.0 | 0.00 | 1.05 | 0.00 | 43 | 1015.4 |
| 20260830231409 | 66 | 263 | 8.0 | 18.0 | 0.00 | 1.05 | 0.00 | 44 | 1015.6 |
| 20260830230409 | 67 | 260 | 8.0 | 13.0 | 0.00 | 1.05 | 1.08 | 42 | 1015.6 |
| 20260830225409 | 67 | 274 | 7.0 | 13.0 | 0.00 | 1.05 | 1.08 | 40 | 1015.8 |
| 20260830224409 | 67 | 286 | 5.0 | 13.0 | 0.00 | 1.05 | 1.08 | 41 | 1015.8 |
| 20260830223409 | 66 | 275 | 6.0 | 15.0 | 0.00 | 1.05 | 1.08 | 44 | 1016.0 |
| 20260830222410 | 67 | 202 | 2.0 | 12.0 | 0.00 | 1.05 | 1.08 | 42 | 1016.0 |
| 20260830221409 | 68 | 316 | 3.0 | 10.0 | 0.00 | 1.05 | 1.08 | 42 | 1016.1 |
| 20260830220409 | 68 | 315 | 6.0 | 11.0 | 0.00 | 1.05 | 1.08 | 38 | 1016.5 |
| 20260830215409 | 68 | 284 | 6.0 | 11.0 | 0.00 | 1.05 | 1.08 | 38 | 1016.6 |
| 20260830213808 | 67 | 262 | 3.0 | 11.0 | 0.00 | 1.05 | 1.08 | 42 | 1016.7 |
| 20260830212808 | 66 | 233 | 5.0 | 12.0 | 0.00 | 1.05 | 1.08 | 44 | 1016.9 |
| 20260830211808 | 67 | 249 | 6.0 | 13.0 | 0.00 | 1.05 | 1.08 | 44 | 1017.0 |
| 20260830210810 | 66 | 253 | 7.0 | 14.0 | 0.00 | 1.05 | 1.08 | 41 | 1017.1 |
| 20260830205808 | 66 | 249 | 8.0 | 16.0 | 0.00 | 1.05 | 1.08 | 38 | 1017.2 |
| 20260830204808 | 66 | 262 | 7.0 | 12.0 | 0.00 | 1.05 | 1.08 | 43 | 1017.3 |
| 20260830203808 | 67 | 236 | 4.0 | 10.0 | 0.00 | 1.05 | 1.08 | 40 | 1017.4 |
| 20260830202808 | 66 | 251 | 3.0 | 12.0 | 0.00 | 1.05 | 1.08 | 44 | 1017.5 |
| 20260830201808 | 66 | 264 | 5.0 | 10.0 | 0.00 | 1.05 | 1.08 | 49 | 1017.6 |
| 20260830200810 | 65 | 259 | 3.0 | 10.0 | 0.00 | 1.05 | 1.08 | 49 | 1017.6 |
| 20260830195808 | 66 | 266 | 4.0 | 10.0 | 0.00 | 1.05 | 1.08 | 48 | 1017.7 |
| 20260830194809 | 65 | 256 | 2.0 | 9.0 | 0.00 | 1.05 | 1.08 | 46 | 1017.7 |
| 20260830193808 | 65 | 267 | 5.0 | 10.0 | 0.00 | 1.05 | 1.08 | 49 | 1017.8 |
| 20260830192808 | 65 | 255 | 6.0 | 11.0 | 0.00 | 1.05 | 1.08 | 48 | 1017.9 |
| 20260830191808 | 65 | 268 | 3.0 | 10.0 | 0.00 | 1.05 | 1.08 | 49 | 1017.8 |
| 20260830190808 | 64 | 278 | 3.0 | 11.0 | 0.00 | 1.05 | 1.08 | 48 | 1018.0 |
| 20260830185808 | 63 | 293 | 6.0 | 13.0 | 0.00 | 1.05 | 1.08 | 50 | 1018.1 |
| 20260830184809 | 63 | 287 | 8.0 | 15.0 | 0.00 | 1.05 | 1.08 | 52 | 1018.1 |
| 20260830183808 | 62 | 288 | 5.0 | 14.0 | 0.00 | 1.05 | 1.08 | 56 | 1018.2 |
| 20260830182808 | 62 | 257 | 6.0 | 17.0 | 0.00 | 1.05 | 1.08 | 55 | 1018.3 |
| 20260830181808 | 62 | 292 | 5.0 | 15.0 | 0.00 | 1.05 | 1.08 | 54 | 1018.4 |
| 20260830180808 | 62 | 287 | 5.0 | 16.0 | 0.00 | 1.05 | 1.08 | 56 | 1018.5 |
| 20260830175808 | 61 | 273 | 9.0 | 17.0 | 0.00 | 1.05 | 1.08 | 57 | 1018.5 |
| 20260830174808 | 61 | 277 | 12.0 | 17.0 | 0.00 | 1.05 | 1.08 | 57 | 1018.5 |
| 20260830173808 | 61 | 266 | 8.0 | 17.0 | 0.00 | 1.05 | 1.08 | 58 | 1018.5 |
| 20260830172808 | 60 | 263 | 10.0 | 18.0 | 0.00 | 1.05 | 1.08 | 59 | 1018.4 |
| 20260830171808 | 59 | 270 | 11.0 | 18.0 | 0.00 | 1.05 | 1.08 | 62 | 1018.3 |
| 20260830170808 | 59 | 271 | 10.0 | 15.0 | 0.00 | 1.05 | 1.08 | 60 | 1018.3 |
| 20260830165808 | 58 | 273 | 10.0 | 15.0 | 0.00 | 1.05 | 1.08 | 60 | 1018.3 |
| 20260830164808 | 58 | 263 | 8.0 | 14.0 | 0.00 | 1.05 | 1.08 | 59 | 1018.3 |
| 20260830163808 | 58 | 267 | 10.0 | 15.0 | 0.00 | 1.05 | 1.08 | 59 | 1018.3 |
| 20260830162808 | 59 | 264 | 10.0 | 16.0 | 0.00 | 1.05 | 1.08 | 57 | 1018.3 |
| 20260830161808 | 59 | 272 | 9.0 | 14.0 | 0.00 | 1.05 | 1.08 | 57 | 1018.2 |
| 20260830160810 | 58 | 270 | 10.0 | 15.0 | 0.00 | 1.05 | 1.08 | 58 | 1018.1 |
| 20260830155808 | 58 | 267 | 9.0 | 12.0 | 0.00 | 1.05 | 1.08 | 58 | 1018.1 |
| 20260830154808 | 57 | 271 | 8.0 | 13.0 | 0.00 | 1.05 | 1.08 | 58 | 1018.0 |
| 20260830153808 | 57 | 275 | 8.0 | 14.0 | 0.00 | 1.05 | 1.08 | 57 | 1018.0 |
| 20260830152808 | 57 | 274 | 8.0 | 14.0 | 0.00 | 1.05 | 1.08 | 57 | 1018.0 |
| 20260830151808 | 57 | 266 | 10.0 | 15.0 | 0.00 | 1.05 | 1.08 | 56 | 1018.0 |
| 20260830150808 | 57 | 268 | 11.0 | 16.0 | 0.00 | 1.05 | 1.08 | 54 | 1018.1 |
| 20260830145808 | 57 | 266 | 12.0 | 17.0 | 0.00 | 1.05 | 1.08 | 54 | 1018.2 |
| 20260830144808 | 57 | 252 | 11.0 | 17.0 | 0.00 | 1.05 | 1.08 | 55 | 1018.2 |
| 20260830143808 | 57 | 256 | 12.0 | 19.0 | 0.00 | 1.05 | 1.08 | 54 | 1018.2 |
| 20260830142808 | 57 | 255 | 12.0 | 18.0 | 0.00 | 1.05 | 1.08 | 56 | 1018.1 |
| 20260830141809 | 57 | 252 | 12.0 | 19.0 | 0.00 | 1.05 | 1.08 | 54 | 1018.1 |
| 20260830140810 | 57 | 242 | 11.0 | 16.0 | 0.00 | 1.05 | 1.08 | 55 | 1018.0 |
| 20260830135808 | 56 | 238 | 7.0 | 18.0 | 0.00 | 1.05 | 1.08 | 58 | 1017.9 |
| 20260830134808 | 56 | 231 | 10.0 | 16.0 | 0.00 | 1.05 | 1.08 | 57 | 1017.8 |
| 20260830133809 | 54 | 238 | 11.0 | 15.0 | 0.00 | 1.05 | 1.08 | 63 | 1017.7 |
| 20260830132808 | 55 | 229 | 10.0 | 17.0 | 0.00 | 1.05 | 1.08 | 59 | 1017.6 |
| 20260830131808 | 55 | 223 | 12.0 | 18.0 | 0.00 | 1.05 | 1.08 | 58 | 1017.5 |
| 20260830130808 | 54 | 229 | 9.0 | 28.0 | 0.00 | 1.05 | 1.08 | 60 | 1017.5 |
| 20260830125811 | 59 | 232 | 9.0 | 15.0 | 0.00 | 1.05 | 1.08 | 45 | 1017.4 |
| 20260830124808 | 59 | 238 | 5.0 | 9.0 | 0.00 | 1.05 | 1.08 | 47 | 1017.3 |
| 20260830123808 | 59 | 237 | 3.0 | 7.0 | 0.00 | 1.05 | 1.08 | 48 | 1017.3 |
| 20260830122808 | 60 | 277 | 6.0 | 10.0 | 0.00 | 1.05 | 1.08 | 47 | 1017.1 |
| 20260830121810 | 60 | 303 | 6.0 | 8.0 | 0.00 | 1.05 | 1.08 | 48 | 1017.0 |
| 20260830120807 | 61 | 309 | 5.0 | 8.0 | 0.00 | 1.05 | 1.08 | 48 | 1017.0 |
| 20260830115808 | 61 | 309 | 4.0 | 8.0 | 0.00 | 1.05 | 1.08 | 48 | 1017.0 |
| 20260830114808 | 60 | 343 | 2.0 | 6.0 | 0.00 | 1.05 | 1.08 | 48 | 1017.0 |
| 20260830113808 | 60 | 337 | 1.0 | 5.0 | 0.00 | 1.05 | 1.08 | 48 | 1017.0 |
| 20260830112808 | 60 | 348 | 1.0 | 4.0 | 0.00 | 1.05 | 1.08 | 48 | 1017.0 |
| 20260830111808 | 60 | 354 | 1.0 | 4.0 | 0.00 | 1.05 | 1.08 | 48 | 1017.1 |
| 20260830110808 | 61 | 348 | 1.0 | 5.0 | 0.00 | 1.05 | 1.08 | 48 | 1017.1 |
| 20260830105808 | 61 | 340 | 1.0 | 8.0 | 0.00 | 1.05 | 1.08 | 47 | 1017.1 |
| 20260830104808 | 61 | 339 | 1.0 | 6.0 | 0.00 | 1.05 | 1.08 | 48 | 1017.2 |
| 20260830103808 | 60 | 0 | 0.0 | 4.0 | 0.00 | 1.05 | 1.08 | 47 | 1017.2 |
| 20260830102808 | 61 | 12 | 1.0 | 5.0 | 0.00 | 1.05 | 1.08 | 46 | 1017.2 |
| 20260830101808 | 61 | 17 | 2.0 | 7.0 | 0.00 | 1.05 | 1.08 | 47 | 1017.2 |
| 20260830100808 | 62 | 3 | 2.0 | 8.0 | 0.00 | 1.05 | 1.08 | 45 | 1017.3 |
| 20260830095808 | 62 | 330 | 4.0 | 10.0 | 0.00 | 1.05 | 1.08 | 44 | 1017.3 |
| 20260830094808 | 61 | 338 | 5.0 | 9.0 | 0.00 | 1.05 | 1.08 | 42 | 1017.3 |
| 20260830093808 | 61 | 345 | 2.0 | 9.0 | 0.00 | 1.05 | 1.08 | 40 | 1017.1 |
| 20260830092808 | 62 | 11 | 3.0 | 8.0 | 0.00 | 1.05 | 1.08 | 39 | 1017.1 |
| 20260830091808 | 62 | 335 | 3.0 | 8.0 | 0.00 | 1.05 | 1.08 | 39 | 1017.1 |
| 20260830090808 | 62 | 333 | 2.0 | 8.0 | 0.00 | 1.05 | 1.08 | 38 | 1017.1 |
| 20260830085808 | 63 | 323 | 5.0 | 9.0 | 0.00 | 1.05 | 1.08 | 38 | 1017.1 |
| 20260830084808 | 63 | 322 | 5.0 | 9.0 | 0.00 | 1.05 | 1.08 | 37 | 1017.0 |
| 20260830083808 | 63 | 325 | 4.0 | 8.0 | 0.00 | 1.05 | 1.08 | 35 | 1017.0 |
| 20260830082808 | 63 | 343 | 3.0 | 10.0 | 0.00 | 1.05 | 1.08 | 31 | 1016.9 |
| 20260830081808 | 63 | 321 | 6.0 | 14.0 | 0.00 | 1.05 | 1.08 | 33 | 1016.9 |
| 20260830080607 | 63 | 302 | 9.0 | 16.0 | 0.00 | 1.05 | 1.08 | 32 | 1016.7 |
| 20260830075607 | 62 | 298 | 11.0 | 24.0 | 0.00 | 1.05 | 1.08 | 32 | 1016.6 |
| 20260830074606 | 63 | 276 | 14.0 | 25.0 | 0.01 | 1.05 | 1.08 | 31 | 1016.6 |
| 20260830073606 | 62 | 284 | 13.0 | 22.0 | 0.03 | 1.05 | 1.08 | 31 | 1016.3 |
| 20260830072607 | 61 | 334 | 14.0 | 35.0 | 0.05 | 1.05 | 1.08 | 38 | 1016.5 |
| 20260830071608 | 61 | 282 | 23.0 | 32.0 | 0.05 | 1.05 | 1.08 | 35 | 1016.9 |
| 20260830070607 | 60 | 261 | 7.0 | 15.0 | 0.06 | 1.05 | 1.08 | 37 | 1017.0 |
| 20260830065607 | 59 | 260 | 3.0 | 6.0 | 0.08 | 1.05 | 1.08 | 44 | 1018.0 |
| 20260830064606 | 55 | 0 | 0.0 | 5.0 | 0.09 | 1.04 | 1.07 | 53 | 1018.1 |
| 20260830063606 | 55 | 17 | 2.0 | 10.0 | 0.09 | 1.02 | 1.05 | 55 | 1018.2 |
| 20260830062606 | 54 | 297 | 8.0 | 18.0 | 0.08 | 1.00 | 1.03 | 59 | 1018.3 |
| 20260830061606 | 54 | 269 | 13.0 | 22.0 | 0.11 | 1.00 | 1.03 | 63 | 1018.2 |
| 20260830060606 | 54 | 220 | 11.0 | 19.0 | 0.13 | 0.99 | 1.02 | 60 | 1018.0 |
| 20260830055606 | 55 | 215 | 13.0 | 18.0 | 0.11 | 0.97 | 1.00 | 53 | 1018.2 |
| 20260830054607 | 56 | 219 | 8.0 | 12.0 | 0.23 | 0.95 | 0.98 | 52 | 1018.5 |
| 20260830053606 | 56 | 210 | 9.0 | 16.0 | 0.26 | 0.93 | 0.96 | 50 | 1018.7 |
| 20260830052606 | 54 | 194 | 8.0 | 17.0 | 0.25 | 0.92 | 0.95 | 59 | 1018.7 |
| 20260830051606 | 53 | 129 | 7.0 | 10.0 | 0.27 | 0.89 | 0.92 | 63 | 1018.9 |
| 20260830050606 | 55 | 226 | 7.0 | 23.0 | 0.48 | 0.86 | 0.89 | 65 | 1018.9 |
| 20260830045606 | 54 | 117 | 16.0 | 23.0 | 0.61 | 0.86 | 0.89 | 63 | 1018.4 |
| 20260830044509 | 53 | 274 | 11.0 | 20.0 | 0.51 | 0.72 | 0.72 | 72 | 1019.1 |
| 20260830043509 | 54 | 240 | 7.0 | 15.0 | 0.50 | 0.67 | 0.67 | 67 | 1018.2 |
| 20260830042509 | 53 | 0 | 0.0 | 14.0 | 0.67 | 0.67 | 0.67 | 70 | 1018.2 |
| 20260830041509 | 53 | 50 | 8.0 | 16.0 | 0.62 | 0.62 | 0.62 | 67 | 1018.0 |
| 20260830040509 | 56 | 27 | 4.0 | 14.0 | 0.38 | 0.38 | 0.38 | 63 | 1018.5 |
| 20260830035509 | 55 | 316 | 5.0 | 22.0 | 0.25 | 0.25 | 0.25 | 61 | 1018.4 |
| 20260830034509 | 55 | 286 | 19.0 | 32.0 | 0.21 | 0.21 | 0.21 | 64 | 1017.9 |
| 20260830033509 | 55 | 279 | 12.0 | 29.0 | 0.17 | 0.17 | 0.17 | 66 | 1017.7 |
| 20260830032509 | 60 | 250 | 13.0 | 19.0 | 0.00 | 0.00 | 0.00 | 52 | 1017.0 |
| 20260830031509 | 59 | 172 | 6.0 | 11.0 | 0.00 | 0.00 | 0.00 | 55 | 1016.9 |
| 20260830030509 | 59 | 164 | 7.0 | 18.0 | 0.00 | 0.00 | 0.00 | 55 | 1016.9 |
| 20260830025510 | 59 | 162 | 11.0 | 20.0 | 0.00 | 0.00 | 0.00 | 58 | 1016.5 |
| 20260830024509 | 58 | 211 | 8.0 | 15.0 | 0.00 | 0.00 | 0.00 | 62 | 1016.5 |
| 20260830023510 | 57 | 238 | 7.0 | 22.0 | 0.00 | 0.00 | 0.00 | 64 | 1016.7 |
| 20260830022509 | 60 | 216 | 10.0 | 18.0 | 0.00 | 0.00 | 0.00 | 57 | 1016.7 |
| 20260830021509 | 67 | 243 | 10.0 | 17.0 | 0.00 | 0.00 | 0.00 | 39 | 1016.5 |
| 20260830020509 | 68 | 310 | 10.0 | 18.0 | 0.00 | 0.00 | 0.00 | 33 | 1016.3 |
| 20260830015510 | 68 | 305 | 9.0 | 14.0 | 0.00 | 0.00 | 0.00 | 32 | 1016.2 |